CLOUDSAT

Satellite information

Favourite Embed

Satellite Type and Status

PAYLOADIN ORBIT

Key statistics

Satellite CLOUDSAT at a glance.

Uptime

6954

Days in orbit

Revolutions

≈ 14.9

Per day

Orbit

SSO

Sun Synchronous Orbit

Inclination

98.4

Latest

Satellite identification and parameters

Extended collection of information and parameters for CLOUDSAT.

Object identification

Identified? True

Debris? False

Object name: CLOUDSAT

International designator: 2006-016A

Object number (NORAD): 29107

Object ID (CCSDS): 29107

Country: UNITED STATES OF AMERICA (US)

Current information (Y/N): Y

RCS size: LARGE

Orbital parameters

Period: 96.96 minutes

Inclination: 98.4228 deg

SMA: 6991.252 km

Apoapsis: 616.876 km

Periapsis: 609.359 km

RAAN: 141.4821 deg

Eccentricy: 0.0005376

Argument of periapsis: 173.1876 deg

Mean anomaly: 186.9411 deg

Mean motion: 14.85149916 rev/day

Mean motion (dot): 0.00001353 rev/day2

B* drag term: 0.00016511 1/REarth

Two-line elements (TLE)

Creation date: May 12, 2025, 2:31 a.m.

Reference frame: TEME

Reference center: EARTH

Epoch: May 11, 2025, 11:26 p.m. UTC

TLE line 0: 0 CLOUDSAT

TLE line 1: 1 29107U 06016A 25131.97684038 .00001353 00000-0 16511-3 0 9998

TLE line 2: 2 29107 98.4228 141.4821 0005376 173.1876 186.9411 14.85149916 14934

Live tracking on map

Real-time ground track for satellite CLOUDSAT.

In-orbit conjunctions

There are no conjunctions computed for CLOUDSAT, at the moment. Check back to stay up to date, as we update our databases every day.

Go to all conjunctions

Associated space launch

CloudSat is a satellite which uses millimeter-wavelength radar to measure the altitude and properties of clouds. Advanced cloud-profiling radar gathers information on the vertical structure of highly dynamic cloud systems. This new information provides the first global measurements of cloud properties that will help scientists compile a database of cloud measurements to improve how clouds are represented in global climate and numerical weather prediction models.

CLOUDSAT was lifted into orbit during the mission ‘Delta 7420-10C | Cloudsat’, on board a Delta 7420-10C space rocket.

The launch took place on April 28, 2006, 10:02 a.m. from Space Launch Complex 2W.

For more information about the launch, click the button.

Launch to space Delta 7420-10C | Cloudsat
Delta 7420-10C | Cloudsat

Agency: N/A

Status: Launch Successful

Launch date: April 28, 2006, 10:02 a.m. UTC

Rocket: Delta 7420-10C

Launch pad: Space Launch Complex 2W

Location: Vandenberg SFB, CA, USA

...

Latest news about this satellite

There are no fresh news available about this satellite. Check back as we update our databases every day.


Newsletter sign-up

Weekly statistics, charts and insights to help you stay on top of the space industry.